Grenchen Airport LSZG

Flugplatz Daten

Name: Grenchen Airport

Ident: LSZG

Lat: 47,18159866

Long: 7,417190075

Platzhöhe: 1411 ft

IataCode: ZHI

City:

Metar

2021/10/25 19:50
LSZG 251950Z AUTO 03002KT 9999 NCD 07/07 Q1022

Taf

Gewünschte Webcam nicht vorhanden? Dann fügen Sie eine hinzu. Sie wird dann so schnell wie möglich freigeschaltet
Url: Title: